www.pogodaiklimat.ru
ПОГОДА в Кастело Бранко
Время
(UTC), дата
04 9.10
05 9.10
06 9.10
07 9.10
08 9.10
09 9.10
10 9.10
11 9.10
12 9.10
13 9.10
14 9.10
15 9.10
16 9.10
17 9.10
18 9.10
19 9.10
20 9.10
21 9.10
22 9.10
23 9.10
00 10.10
01 10.10
02 10.10
03 10.10
04 10.10
05 10.10
06 10.10
07 10.10
08 10.10
09 10.10
10 10.10
11 10.10
12 10.10
13 10.10
14 10.10
15 10.10
16 10.10
17 10.10
18 10.10
19 10.10
20 10.10
21 10.10
22 10.10
23 10.10
00 11.10
01 11.10
02 11.10
03 11.10
04 11.10
05 11.10
06 11.10
07 11.10
08 11.10
09 11.10
10 11.10
11 11.10
12 11.10
13 11.10
14 11.10
15 11.10
16 11.10
17 11.10
18 11.10
19 11.10
20 11.10
21 11.10
22 11.10
23 11.10
00 12.10
01 12.10
02 12.10
03 12.10
04 12.10
05 12.10
06 12.10
07 12.10
08 12.10
09 12.10
10 12.10
11 12.10
12 12.10
13 12.10
14 12.10
15 12.10
16 12.10
17 12.10
18 12.10
19 12.10
20 12.10
21 12.10
22 12.10
23 12.10
00 13.10
01 13.10
02 13.10
03 13.10
04 13.10
05 13.10
06 13.10
07 13.10
08 13.10
09 13.10
10 13.10
11 13.10
12 13.10
13 13.10
14 13.10
15 13.10
16 13.10
17 13.10
18 13.10
19 13.10
20 13.10
21 13.10
22 13.10
23 13.10
00 14.10
01 14.10
02 14.10
03 14.10
04 14.10
05 14.10
06 14.10
07 14.10
08 14.10
09 14.10
10 14.10
11 14.10
12 14.10
13 14.10
14 14.10
15 14.10
16 14.10
17 14.10
18 14.10
19 14.10
20 14.10
21 14.10
22 14.10
23 14.10
00 15.10
01 15.10
02 15.10
03 15.10
04 15.10
05 15.10
06 15.10
07 15.10
08 15.10
09 15.10
10 15.10
11 15.10
12 15.10
13 15.10
14 15.10
15 15.10
16 15.10
17 15.10
18 15.10
19 15.10
20 15.10
21 15.10
22 15.10
23 15.10
00 16.10
01 16.10
02 16.10
03 16.10
04 16.10
05 16.10
Ветер
(напр.,м/с)
Видим. Явления Облачность Т
(С)
Тd
(С)
f
(%)
Тe
(С)
Тes
(С)
Комфортность P
(гПа)
Po
(гПа)
Тmin
(С)
Tmax
(С)
R
(мм)
R24
(мм)
S
(см)
З 1 н/о н/о +16.6 +15.7 94 +17 +17 тепло 1017.4 972.4
С 2
{6}
н/о н/о +16.4 +14.6 89 +16 +16 тепло 1017.8 972.8
СЗ 3
{5}
н/о н/о +15.4 +13.7 90 +15 +15 тепло 1018.0 972.9 +15.4
С 3-6
{6}
н/о н/о +16.2 +12.3 78 +16 +16 тепло 1018.1 973.1
С 6-11
{11}
25 км 1/1 500 м
[Cu hum Ci fib]
+16.9 +10.5 66 +16 +16 тепло 1018.8 973.8
С 5-8
{11}
30 км 1/0
[Ci fib]
+19.7 +1.8 30 +20 +21 тепло 1018.6 974.0
С 5-8
{10}
30 км 1/0
[Ci fib]
+22.8 -6.2 14 +21 +24 комфорт 1018.2 974.2
С 5-8
{9}
30 км ясно +24.2 -5.0 14 +22 +26 комфорт 1017.8 974.0
С 4-6
{10}
30 км ясно +26.3 -8.2 10 +23 +30 комфорт 1016.9 973.4
С 3-6
{9}
30 км ясно +27.5 -5.4 11 +24 +32 комфорт 1016.1 972.8
С 3-8
{8}
н/о н/о +28.1 -6.8 10 +25 +25 комфорт 1015.6 972.4
С 4-6
{7}
н/о н/о +28.2 -1.3 15 +26 +26 жарко 1015.3 972.1
С 5-7
{8}
н/о н/о +27.4 +1.4 19 +26 +26 жарко 1015.0 971.7
С 4
{8}
н/о н/о +26.0 +1.0 20 +24 +24 комфорт 1015.5 972.0
С 2
{8}
н/о н/о +23.3 +2.6 26 +23 +23 комфорт 1016.3 972.4 +29.0
С 2 н/о н/о +21.2 +4.0 32 +21 +21 комфорт 1017.0 972.7
СЗ 2
{5}
н/о н/о +19.2 +5.0 39 +20 +20 тепло 1017.8 973.3
СЗ 2 н/о н/о +19.2 +4.7 38 +20 +20 тепло 1018.0 973.4
С 3
{5}
н/о н/о +18.9 +2.6 34 +19 +19 тепло 1018.1 973.5
С 3
{5}
н/о н/о +17.8 +3.7 39 +18 +18 тепло 1018.1 973.3
С 4-6
{6}
н/о н/о +18.1 +3.9 39 +18 +18 тепло 1017.8 973.1
С 3
{7}
н/о н/о +17.5 +4.1 41 +18 +18 тепло 1017.8 972.9
С 3-5
{5}
н/о н/о +17.3 +4.7 43 +17 +17 тепло 1017.8 973.0
С 3-6
{6}
н/о н/о +17.1 +5.2 45 +17 +17 тепло 1017.4 972.5
С 3
{6}
н/о н/о +16.3 +5.0 47 +16 +16 тепло 1017.7 972.7
С 3
{5}
н/о н/о +15.6 +5.3 50 +15 +15 тепло 1018.0 972.9
С 3
{5}
н/о н/о +15.2 +5.5 52 +15 +15 тепло 1018.3 973.1 +15.1
СВ 2 н/о н/о +15.3 +5.6 52 +15 +15 тепло 1018.6 973.4
СВ 4 30 км ясно +18.1 +6.1 45 +18 +19 тепло 1018.8 974.0
СВ 3-6
{6}
30 км ясно +20.6 +6.5 40 +22 +24 комфорт 1018.9 974.4
В 5-8
{8}
30 км ясно +22.5 +8.1 40 +24 +27 комфорт 1018.6 974.5
СВ 4-6
{8}
30 км ясно +24.0 +7.4 34 +24 +30 комфорт 1018.2 974.3
В 3-6
{7}
30 км ясно +26.5 +8.9 33 +27 +35 жарко 1017.4 973.9
-5
{7}
30 км ясно +27.0 +10.3 35 1016.6 973.2

{5}
30 км ясно +27.7 +8.6 30 1016.0 972.7
С 1 30 км ясно +28.5 +7.3 26 +28 +34 жарко 1015.5 972.3
С 1 н/о н/о +28.9 +5.7 23 +28 +28 жарко 1015.1 972.1
штиль 0 30 км ясно +28.3 +5.1 23 +27 +28 жарко 1015.3 972.1
штиль 0 30 км ясно +26.3 +5.2 26 +26 +26 жарко 1015.5 972.0 +29.5
штиль 0 н/о н/о +25.2 +5.0 27 +25 +25 комфорт 1015.8 972.1
С 2 н/о н/о +24.5 +4.8 28 +24 +24 комфорт 1016.2 972.4
СЗ 1 н/о н/о +22.0 +5.1 33 +22 +22 комфорт 1016.8 972.7
СВ 1 н/о н/о +21.4 +5.8 36 +22 +22 комфорт 1017.2 972.9
СВ 1 н/о н/о +21.0 +6.6 39 +23 +23 комфорт 1017.3 973.0
СВ 1 н/о н/о +19.3 +7.3 46 +21 +21 комфорт 1017.5 972.9
СЗ 1 н/о н/о +17.5 +7.1 50 +19 +19 тепло 1017.6 972.8
СВ 2 н/о н/о +18.7 +6.9 46 +20 +20 тепло 1017.2 972.6
СВ 2 н/о н/о +18.1 +6.9 48 +19 +19 тепло 1017.1 972.4
СВ 2 н/о н/о +18.6 +7.8 49 +20 +20 тепло 1017.0 972.4
СВ 2 н/о н/о +18.1 +7.3 49 +19 +19 тепло 1017.4 972.7
СВ 2 н/о н/о +17.8 +7.0 49 +18 +18 тепло 1017.7 972.9 +16.9
В 2 н/о н/о +17.2 +7.6 53 +18 +18 тепло 1018.1 973.2
В 2 20 км 1/0
[Cs]
+19.2 +9.1 52 +21 +21 комфорт 1018.4 973.8
В 4 15 км 3/0
[Cs]
+20.7 +10.2 51 +23 +24 комфорт 1018.8 974.4
В 3
{7}
15 км 6/0
[Cs]
+21.5 +10.2 49 +23 +27 комфорт 1018.7 974.4

{5}
н/о н/о +25.2 +9.8 38 1017.7 974.0
С 3
{6}
20 км 4/0 2000 м
[Ac cast Ci sp]
+25.7 +10.3 38 +27 +33 жарко 1016.7 973.1

{5}
20 км 8/0
[Ac lent Cs]
+27.1 +10.5 35 1015.6 972.2

{6}
20 км 8/1 2000 м
[]
+27.9 +10.2 33 1014.8 971.5
С 2 20 км 9/0 2000 м
[Ac und Cs]
+28.3 +9.8 31 +28 +32 жарко 1013.9 970.8
С 1 20 км 9/0
[Ac trans Cs]
+28.7 +9.3 30 +29 +31 жарко 1013.5 970.5
ЮЗ 2 20 км 9/1 660 м
[Sc diur, vesp Ac trans Cs]
+27.4 +8.5 30 +27 +28 жарко 1013.7 970.5
С 2
{5}
20 км 9/1 660 м
[Sc diur, vesp Ac trans Cs]
+26.7 +8.7 32 +27 +27 жарко 1013.7 970.4 +28.9
Ю 3-5
{7}
н/о н/о +25.0 +10.7 41 +26 +26 жарко 1014.3 970.7
ЮЗ 4-7
{7}
н/о н/о +23.9 +11.9 47 +26 +26 жарко 1014.7 970.9
ЮЗ 3
{6}
н/о н/о +22.9 +12.2 51 +26 +26 жарко 1015.2 971.3
ЮЗ 3-6
{7}
н/о н/о +22.0 +13.6 59 +25 +25 комфорт 1015.6 971.6
-5
{6}
н/о н/о +21.3 +14.2 64 1015.8 971.6
ЮЗ 2
{5}
н/о н/о +20.7 +14.4 67 +24 +24 комфорт 1015.6 971.3
Ю 1 н/о н/о +20.2 +14.5 70 +24 +24 комфорт 1015.1 970.8
Ю 2 н/о н/о +19.7 +14.5 72 +22 +22 комфорт 1014.7 970.4
Ю 1 н/о н/о +19.6 +14.9 74 +23 +23 комфорт 1014.4 970.0
ЮЗ 1 н/о н/о +19.0 +15.2 79 +21 +21 комфорт 1014.5 970.0
Ю 2 н/о н/о +18.1 +14.9 82 +19 +19 тепло 1014.7 970.1
ЮВ 2 н/о н/о +17.6 +15.3 86 +18 +18 тепло 1014.7 970.0 +17.5
Ю 2 н/о н/о +18.4 +15.9 85 +20 +20 тепло 1014.2 969.7
ЮВ 1 н/о н/о +18.4 +15.8 85 +20 +20 тепло 1014.7 970.2
С 1 15 км 4/3 540 м
[Cu med, cong Ac cuf Ci fib]
+20.9 +15.6 72 +25 +27 комфорт 1015.0 970.8
-5
{5}
н/о н/о +23.6 +15.0 59 1014.3 970.5
Ю 4-7
{7}
н/о н/о +24.7 +14.0 51 +27 +27 жарко 1013.5 969.9
Ю 5-9
{10}
н/о н/о +26.6 +13.5 44 +29 +29 жарко 1012.5 969.2
Ю 6-9
{11}
н/о н/о +27.5 +13.2 41 +29 +29 жарко 1011.3 968.2
Ю 5-13
{13}
н/о н/о +28.2 +11.3 35 +29 +29 жарко 1010.1 967.2
Ю 6-10
{13}
н/о н/о +27.8 +12.4 39 +29 +29 жарко 1010.2 967.2
ЮЗ 4-7
{13}
н/о н/о +27.1 +15.7 50 +30 +30 душно 1010.1 967.0
З 4-7
{9}
н/о н/о +24.6 +15.5 57 +28 +28 душно 1010.7 967.2
З 5-10
{10}
н/о н/о +21.7 +14.8 65 +25 +25 комфорт 1012.0 968.0 +28.8
З 3-6
{7}
н/о н/о +20.4 +13.7 65 +23 +23 комфорт 1012.8 968.6
З 3-5
{7}
н/о н/о +18.6 +12.6 68 +19 +19 тепло 1013.4 969.0
С 3-5
{7}
н/о н/о +17.5 +12.5 72 +18 +18 тепло 1013.9 969.2
ЮЗ 3-6
{6}
н/о н/о +16.8 +12.0 73 +17 +17 тепло 1014.4 969.6
Ю 2
{6}
н/о н/о +15.6 +12.4 81 +16 +16 тепло 1014.8 969.8
ЮЗ 2 н/о н/о +14.7 +14.4 98 +14 +14 тепло 1014.9 969.8

{5}
н/о н/о +15.1 +15.1 100 1014.9 969.8
ЮЗ 3
{6}
н/о н/о +14.9 +14.8 99 +14 +14 тепло 1014.8 969.7
С 2
{5}
н/о н/о +14.6 +14.6 100 +14 +14 тепло 1014.8 969.6
Ю 3
{5}
н/о н/о +14.6 +14.6 100 +14 +14 тепло 1014.6 969.5
Ю 3
{5}
н/о н/о +14.7 +14.7 100 +14 +14 тепло 1014.9 969.8
ЮВ 2 н/о н/о +14.7 +14.7 100 +14 +14 тепло 1014.9 969.7 +14.3 0.1
ЮВ 3
{5}
н/о н/о +14.7 +14.7 100 +14 +14 тепло 1014.8 969.7
Ю 2
{5}
н/о н/о +15.6 +15.6 100 +15 +15 тепло 1015.3 970.3
ЮВ 3
{5}
н/о н/о +16.5 +15.2 92 +16 +16 тепло 1015.5 970.6
ЮВ 2
{7}
н/о н/о +17.3 +14.6 84 +18 +18 тепло 1015.5 970.7
Ю 4-7
{8}
н/о н/о +19.2 +13.7 70 +20 +20 тепло 1015.4 970.9
Ю 3-6
{8}
н/о н/о +20.0 +12.7 63 +22 +22 комфорт 1014.7 970.4
Ю 4-8
{8}
н/о н/о +20.9 +12.2 57 +23 +23 комфорт 1013.9 969.7
Ю 5-9
{9}
н/о н/о +22.0 +12.1 53 +24 +24 комфорт 1012.7 968.8
Ю 4-6
{9}
н/о н/о +22.0 +11.0 50 +24 +24 комфорт 1012.0 968.1
Ю 5-9
{9}
н/о н/о +22.4 +10.7 47 +24 +24 комфорт 1011.7 967.8
Ю 3-5
{7}
н/о н/о +22.3 +11.2 49 +24 +24 комфорт 1011.1 967.2
Ю 2
{6}
н/о н/о +21.3 +10.9 51 +23 +23 комфорт 1011.0 967.0 +23.0
Ю 2 н/о н/о +20.8 +10.5 52 +23 +23 комфорт 1011.1 967.0
ЮВ 2 н/о н/о +19.2 +10.4 57 +21 +21 комфорт 1010.8 966.5
С 3
{6}
н/о н/о +18.5 +11.6 64 +19 +19 тепло 1011.4 967.0
З 2
{5}
н/о н/о +17.6 +11.3 67 +18 +18 тепло 1011.3 966.7
С 2 н/о н/о +16.8 +12.1 74 +17 +17 тепло 1010.9 966.3
ЮЗ 4-6
{6}
н/о н/о +16.2 +12.5 79 +15 +15 тепло 1010.3 965.6
ЮЗ 3-5
{6}
н/о н/о +16.1 +13.5 85 +16 +16 тепло 1010.2 965.5

{6}
н/о н/о +16.0 +15.2 95 1009.4 964.8
ЮВ 2
{6}
н/о н/о +14.9 +14.9 100 +14 +14 тепло 1007.7 962.9
СЗ 6-10
{14}
н/о н/о +12.8 +12.8 100 +10 +10 тепло 1010.0 964.8 5
З 4-6
{7}
н/о н/о +12.6 +12.6 100 +11 +11 тепло 1010.9 965.6 0.4
ЮЗ 3-6
{6}
н/о н/о +12.0 +11.8 99 +10 +10 тепло 1011.8 966.4 +11.8 6
ЮЗ 3-7
{7}
н/о н/о +11.5 +11.5 100 +10 +10 тепло 1012.9 967.4
ЮЗ 3
{6}
15 км 3/3 360 м
[Cu Sc]
+12.7 +12.7 100 +11 +11 тепло 1013.5 968.1
Ю 4-6
{7}
15 км 9/4 360 м
[Cu Sc Ac As]
+13.9 +13.5 97 +12 +13 тепло 1013.8 968.6
Ю 5-8
{9}
8000 м в посл. час ливневой дождь 10/6 360 м
[Cu Sc Ac As]
+13.2 +13.2 100 +11 +11 тепло 1014.1 968.8 1
ЮЗ 4-7
{8}
8000 м в посл. час ливневой дождь 9/6 360 м
[Cu Sc Ac As]
+13.7 +13.7 100 +12 +13 тепло 1014.3 969.1 0.5
ЮЗ 3-7
{8}
12 км слаб. дождь 10/3 360 м
[Cu Sc Ac As]
+13.5 +13.5 100 +12 +14 тепло 1014.5 969.2 2
ЮЗ 4-8
{8}
25 км в посл. час ливневой дождь 4/4 450 м
[Cu Sc Ac trans Ci sp]
+14.8 +14.0 95 +14 +17 тепло 1014.3 969.3 0.2
З 6-9
{9}
25 км {ливн. осадки} 5/5 450 м
[Cu Sc]
+16.7 +11.7 72 +16 +17 тепло 1014.0 969.3
З 8-11
{14}
25 км {ливн. осадки, дождь} 3/3 450 м
[Cu Sc]
+16.2 +7.7 57 +15 +15 тепло 1014.8 969.9
З 5-8
{11}
25 км 1/1 500 м
[Cu Sc]
+16.9 +7.4 53 +16 +18 тепло 1015.3 970.5
СЗ 6-9
{13}
25 км 1/1 500 м
[Cu Sc]
+15.0 +6.9 58 +13 +14 тепло 1017.0 971.8
СЗ 6-10
{10}
25 км {ливн. осадки, дождь} 1/1 450 м
[Cu Sc]
+13.6 +6.6 63 +12 +12 тепло 1018.2 972.8 +17.5 3
З 5-8
{10}
н/о н/о +12.5 +5.4 62 +10 +10 тепло 1018.8 973.2

{9}
н/о н/о +11.3 +5.4 67 1020.0 974.1
З 3 н/о н/о +10.3 +5.9 74 +8 +8 тепло 1020.8 974.7 3
ЮЗ 1 н/о н/о +10.6 +6.5 76 +10 +10 тепло 1021.5 975.4
З 2 н/о н/о +10.7 +6.6 76 +9 +9 тепло 1021.8 975.8
З 2
{5}
н/о н/о +10.4 +7.0 79 +9 +9 тепло 1022.0 975.9
З 3 н/о н/о +10.4 +7.3 81 +8 +8 тепло 1021.9 975.8
З 2 н/о н/о +9.0 +7.2 88 +7 +7 тепло 1022.0 975.7
З 2 н/о н/о +8.7 +7.5 92 +7 +7 тепло 1022.1 975.8
З 2
{5}
н/о н/о +7.7 +7.7 100 +5 +5 тепло 1022.5 976.0
З 2 н/о н/о +8.8 +8.2 96 +7 +7 тепло 1022.6 976.3
З 2 н/о н/о +8.0 +8.0 100 +6 +6 тепло 1023.1 976.6 +7.6
З 2 н/о н/о +8.9 +8.8 99 +7 +7 тепло 1022.8 976.5
З 1 20 км 6/1 450 м
[Cu hum Cs]
+9.0 +9.0 100 +8 +9 тепло 1023.5 977.1
С 1 20 км 9/1 450 м
[Cu hum Cs]
+13.0 +9.1 77 +13 +15 тепло 1023.3 977.6
20 км 9/1 450 м
[Cu Sc Cs]
+14.6 +9.9 73 1023.2 977.7
20 км 9/3 500 м
[Cu Sc Cs]
+15.2 +9.8 70 1023.0 977.6
С 2
{5}
20 км 9/6 450 м
[Cu Sc Cs]
+15.4 +9.1 66 +15 +18 тепло 1022.5 977.2
С 3-5
{6}
н/о н/о +17.6 +9.3 58 +18 +18 тепло 1021.5 976.5
ЮЗ 3-8
{8}
20 км 6/4 450 м
[Cu Sc Cs]
+18.7 +8.2 50 +19 +23 тепло 1021.0 976.2
ЮЗ 4-7
{7}
20 км 9/3 450 м
[Cu Sc Cs]
+18.8 +6.5 45 +19 +21 тепло 1020.7 975.9

{6}
20 км 9/3 450 м
[Cu Sc Cs]
+18.3 +5.3 42 1020.6 975.7
З 3-6
{6}
20 км 8/1 450 м
[Cu Sc Ac cast Cs]
+17.7 +6.0 46 +18 +18 тепло 1020.7 975.7
З 2
{6}
20 км 8/1 600 м
[Cu med, cong Ac cast Cs]
+15.5 +6.8 56 +16 +16 тепло 1021.3 976.0 +19.8
З 2 н/о н/о +14.4 +7.5 63 +14 +14 тепло 1021.7 976.2
З 2 н/о н/о +13.7 +7.6 67 +13 +13 тепло 1021.8 976.2
З 3 н/о н/о +12.6 +7.7 72 +11 +11 тепло 1022.2 976.4
З 2 н/о н/о +12.7 +8.2 74 +12 +12 тепло 1022.4 976.6
З 2 н/о н/о +12.1 +7.9 75 +11 +11 тепло 1022.5 976.6
З 2 н/о н/о +11.8 +8.5 80 +11 +11 тепло 1022.3 976.4
ЮЗ 2 н/о н/о +12.1 +8.7 80 +11 +11 тепло 1022.0 976.2
ЮЗ 2 н/о н/о +11.9 +8.9 82 +11 +11 тепло 1021.8 976.0
ЮЗ 2 н/о н/о +11.2 +9.0 86 +10 +10 тепло 1021.7 975.7
ЮЗ 1 н/о н/о +10.8 +9.2 90 +10 +10 тепло 1021.5 975.4
С 1 н/о н/о +9.9 +9.9 100 +9 +9 тепло 1021.5 975.3
Местоположение метеостанции Кастело Бранко (Португалия): широта 39.83 долгота -7.48 высота над уровнем моря 384 м.
В архиве по умолчанию представлена погода в Кастело Бранко за последнюю неделю. Архивные данные за месяц целиком и за предыдущие месяцы, начиная с января 2011 года, Вы можете получить, выбрав интересующий диапазон дат из раскрывающегося списка и нажав кнопку "Найти!".
*Определитесь, кто Вы:
Внимание! Время в таблицах - всемирное. Для получения местного времени необходимо прибавить поправку, которая равна 0 ч.
Смотрите также архив погоды в соседних городах и на ближайших метеорологических станциях:
Партнеры нашего сайта:      
Пояснения к столбцам:
  • Ветер - указаны скорость ветра в м/с - средняя за 10 мин, порывы в срок и между сроками (в фигурных скобках) и направление, откуда дует ветер: С - северный,
  • СВ - северо-восточный, В - восточный, ЮВ - юго-восточный, Ю - южный, ЮЗ - юго-западный, З - западный, СЗ - северо-западный.
  • Видимость - горизонтальная дальность видимости в метрах или километрах. При видимости от 1 до 10 км при отсутствии осадков обычно наблюдается дымка, при ухудшении видимости до 1 км и менее - туман. В сухую погоду видимость может ухудшаться дымом, пылью или мглою.
  • Явления - указаны атмосферные явления, наблюдавшиеся в срок или в последний час перед сроком; фигурными скобками обозначены явления, наблюдавшиеся между сроками (за 1-3 часа до срока); квадратными скобками обозначены град или гололедные отложения с указанием их диаметра в мм.
  • Облачность - указаны через наклонную черту общая и нижняя облачность в баллах и высота нижней границы облаков в метрах; квадратными скобками обозначены формы облаков: Ci - перистые, Cs - перисто-слоистые, Cc - перисто-кучевые, Ac - высококучевые, As - высокослоистые, Sc - слоисто-кучевые, Ns - слоисто-дождевые, Cu - кучевые, Cb - кучево-дождевые. Подробнее классификацию облаков см. в Атласе облаков (PDF).
  • T - Температура воздуха - температура, измеренная на высоте 2 м над землей.
  • Td - Температура точки росы - температура, при понижении до которой содержащийся в воздухе водяной пар достигнет насыщения.
  • f - Относительная влажность воздуха - влажноcть воздуха, измеренная на высоте 2 м над землей.
  • Te - Эффективная температура - температура, которую ощущает одетый по сезону человек в тени. Характеристика душности погоды. При расчете учитывается влияние влажности воздуха и скорости ветра на теплоощущения человека.
  • Tes - Эффективная температура на солнце - температура, которую ощущает человек, с поправкой на солнечный нагрев. Характеристика знойности погоды. Зависит от высоты солнца над горизонтом, облачности и скорости ветра. Ночью, в пасмурную погоду, а также при ветре 12 м/с и более поправка равна нулю.
  • P - Атмосферное давление - приведенное к уровню моря атмосферное давление.
  • Po - Атмосферное давление - измеренное на уровне метеостанции атмосферное давление.
  • Tmin - Минимальная температура - минимум температуры воздуха на высоте 2 м над землей.
  • Tmax - Максимальная температура - максимум температуры воздуха на высоте 2 м над землей.
  • R - Количество осадков - Количество выпавших осадков за период времени, мм. При наведении курсора мыши на число - период времени, за который выпало указанное количество осадков.
  • R24 - Количество осадков - Количество выпавших осадков за 24 часа, мм.
  • S - Снежный покров - Высота снежного покрова, см. При наведении курсора мыши на число - состояние снежного покрова и степень покрытия местности в баллах.